User: anonymous   Login
Location: Black Swamp Observatory
(41.3920°N, 84.1250°W)
Time: 22:26:03
(UTC-05:00)
Language:

SR - Orbit

View from above orbital plane
View from above orbital plane
View from above satellite
View from above satellite

Ground track
Ground track

The orbit data is extracted from the following two-line orbital elements,

1    46U 60007B   22022.79554252  .00000238  00000-0  70509-4 0  9998
2    46  66.6899 267.4012 0203833  54.2884 307.6999 14.49509303223781
Epoch (UTC): 22 January 2022 19:05:34
Eccentricity: 0.0203833
inclination: 66.6899°
perigee height: 582 km
apogee height: 872 km
right ascension of ascending node: 267.4012°
argument of perigee: 54.2884°
revolutions per day: 14.49509303
mean anomaly at epoch: 307.6999°
orbit number at epoch: 22378

The dashed part of the orbit path shows where the satellite is in the earth's shadow,  

DLR